Year,Month,Day,Hour,Minute,Value (Times are PST for temperature in C)
2017,07,17,00,00,12.90
2017,07,17,00,01,12.90
2017,07,17,00,02,12.90
2017,07,17,00,03,12.90
2017,07,17,00,04,12.90
2017,07,17,00,05,12.80
2017,07,17,00,06,12.80
2017,07,17,00,07,12.80
2017,07,17,00,08,12.80
2017,07,17,00,09,12.80
2017,07,17,00,10,12.80
2017,07,17,00,11,12.70
2017,07,17,00,12,12.70
2017,07,17,00,13,12.70
2017,07,17,00,14,12.70
2017,07,17,00,15,12.70
2017,07,17,00,16,12.60
2017,07,17,00,17,12.60
2017,07,17,00,18,12.60
2017,07,17,00,19,12.60
2017,07,17,00,20,12.60
2017,07,17,00,21,12.50
2017,07,17,00,22,12.50
2017,07,17,00,23,12.50
2017,07,17,00,24,12.40
2017,07,17,00,25,12.40
2017,07,17,00,26,12.40
2017,07,17,00,27,12.40
2017,07,17,00,28,12.40
2017,07,17,00,29,12.30
2017,07,17,00,30,12.30
2017,07,17,00,31,12.30
2017,07,17,00,32,12.30
2017,07,17,00,33,12.30
2017,07,17,00,34,12.30
2017,07,17,00,35,12.30
2017,07,17,00,36,12.30
2017,07,17,00,37,12.20
2017,07,17,00,38,12.20
2017,07,17,00,39,12.20
2017,07,17,00,40,12.20
2017,07,17,00,41,12.20
2017,07,17,00,42,12.20
2017,07,17,00,43,12.10
2017,07,17,00,44,12.10
2017,07,17,00,45,12.10
2017,07,17,00,46,12.10
2017,07,17,00,47,12.10
2017,07,17,00,48,12.10
2017,07,17,00,49,12.10
2017,07,17,00,50,12.10
2017,07,17,00,51,12.10
2017,07,17,00,52,12.10
2017,07,17,00,53,12.00
2017,07,17,00,54,12.00
2017,07,17,00,55,12.00
2017,07,17,00,56,12.00
2017,07,17,00,57,11.90
2017,07,17,00,58,11.90
2017,07,17,00,59,11.90
2017,07,17,01,00,11.90
2017,07,17,01,01,11.90
2017,07,17,01,02,11.80
2017,07,17,01,03,11.80
2017,07,17,01,04,11.80
2017,07,17,01,05,11.80
2017,07,17,01,06,11.80
2017,07,17,01,07,11.80
2017,07,17,01,08,11.80
2017,07,17,01,09,11.80
2017,07,17,01,10,11.80
2017,07,17,01,11,11.70
2017,07,17,01,12,11.70
2017,07,17,01,13,11.70
2017,07,17,01,14,11.70
2017,07,17,01,15,11.70
2017,07,17,01,16,11.70
2017,07,17,01,17,11.70
2017,07,17,01,18,11.70
2017,07,17,01,19,11.70
2017,07,17,01,20,11.70
2017,07,17,01,21,11.70
2017,07,17,01,22,11.70
2017,07,17,01,23,11.70
2017,07,17,01,24,11.70
2017,07,17,01,25,11.70
2017,07,17,01,26,11.70
2017,07,17,01,27,11.70
2017,07,17,01,28,11.60
2017,07,17,01,29,11.60
2017,07,17,01,30,11.60
2017,07,17,01,31,11.60
2017,07,17,01,32,11.60
2017,07,17,01,33,11.60
2017,07,17,01,34,11.60
2017,07,17,01,35,11.60
2017,07,17,01,36,11.60
2017,07,17,01,37,11.60
2017,07,17,01,38,11.60
2017,07,17,01,39,11.60
2017,07,17,01,40,11.60
2017,07,17,01,41,11.60
2017,07,17,01,42,11.60
2017,07,17,01,43,11.60
2017,07,17,01,44,11.60
2017,07,17,01,45,11.50
2017,07,17,01,46,11.50
2017,07,17,01,47,11.50
2017,07,17,01,48,11.50
2017,07,17,01,49,11.50
2017,07,17,01,50,11.50
2017,07,17,01,51,11.50
2017,07,17,01,52,11.50
2017,07,17,01,53,11.40
2017,07,17,01,54,11.40
2017,07,17,01,55,11.40
2017,07,17,01,56,11.40
2017,07,17,01,57,11.40
2017,07,17,01,58,11.40
2017,07,17,01,59,11.40
2017,07,17,02,00,11.30
2017,07,17,02,01,11.30
2017,07,17,02,02,11.30
2017,07,17,02,03,11.30
2017,07,17,02,04,11.30
2017,07,17,02,05,11.30
2017,07,17,02,06,11.30
2017,07,17,02,07,11.30
2017,07,17,02,08,11.30
2017,07,17,02,09,11.30
2017,07,17,02,10,11.30
2017,07,17,02,11,11.30
2017,07,17,02,12,11.20
2017,07,17,02,13,11.20
2017,07,17,02,14,11.20
2017,07,17,02,15,11.20
2017,07,17,02,16,11.20
2017,07,17,02,17,11.20
2017,07,17,02,18,11.20
2017,07,17,02,19,11.20
2017,07,17,02,20,11.20
2017,07,17,02,21,11.20
2017,07,17,02,22,11.20
2017,07,17,02,23,11.20
2017,07,17,02,24,11.20
2017,07,17,02,25,11.20
2017,07,17,02,26,11.20
2017,07,17,02,27,11.20
2017,07,17,02,28,11.20
2017,07,17,02,29,11.20
2017,07,17,02,30,11.10
2017,07,17,02,31,11.10
2017,07,17,02,32,11.10
2017,07,17,02,33,11.10
2017,07,17,02,34,11.10
2017,07,17,02,35,11.10
2017,07,17,02,36,11.10
2017,07,17,02,37,11.00
2017,07,17,02,38,11.00
2017,07,17,02,39,11.00
2017,07,17,02,40,10.90
2017,07,17,02,41,10.90
2017,07,17,02,42,10.90
2017,07,17,02,43,10.90
2017,07,17,02,44,10.90
2017,07,17,02,45,10.90
2017,07,17,02,46,10.90
2017,07,17,02,47,10.90
2017,07,17,02,48,10.90
2017,07,17,02,49,10.90
2017,07,17,02,50,10.80
2017,07,17,02,51,10.80
2017,07,17,02,52,10.80
2017,07,17,02,53,10.80
2017,07,17,02,54,10.80
2017,07,17,02,55,10.80
2017,07,17,02,56,10.80
2017,07,17,02,57,10.80
2017,07,17,02,58,10.80
2017,07,17,02,59,10.80
2017,07,17,03,00,10.80
2017,07,17,03,01,10.80
2017,07,17,03,02,10.80
2017,07,17,03,03,10.80
2017,07,17,03,04,10.80
2017,07,17,03,05,10.80
2017,07,17,03,06,10.80
2017,07,17,03,07,10.70
2017,07,17,03,08,10.70
2017,07,17,03,09,10.70
2017,07,17,03,10,10.70
2017,07,17,03,11,10.70
2017,07,17,03,12,10.70
2017,07,17,03,13,10.70
2017,07,17,03,14,10.70
2017,07,17,03,15,10.70
2017,07,17,03,16,10.70
2017,07,17,03,17,10.70
2017,07,17,03,18,10.70
2017,07,17,03,19,10.70
2017,07,17,03,20,10.70
2017,07,17,03,21,10.70
2017,07,17,03,22,10.70
2017,07,17,03,23,10.60
2017,07,17,03,24,10.60
2017,07,17,03,25,10.60
2017,07,17,03,26,10.60
2017,07,17,03,27,10.60
2017,07,17,03,28,10.60
2017,07,17,03,29,10.60
2017,07,17,03,30,10.50
2017,07,17,03,31,10.50
2017,07,17,03,32,10.50
2017,07,17,03,33,10.50
2017,07,17,03,34,10.50
2017,07,17,03,35,10.50
2017,07,17,03,36,10.50
2017,07,17,03,37,10.50
2017,07,17,03,38,10.50
2017,07,17,03,39,10.40
2017,07,17,03,40,10.40
2017,07,17,03,41,10.40
2017,07,17,03,42,10.40
2017,07,17,03,43,10.40
2017,07,17,03,44,10.40
2017,07,17,03,45,10.40
2017,07,17,03,46,10.30
2017,07,17,03,47,10.30
2017,07,17,03,48,10.30
2017,07,17,03,49,10.30
2017,07,17,03,50,10.30
2017,07,17,03,51,10.30
2017,07,17,03,52,10.20
2017,07,17,03,53,10.20
2017,07,17,03,54,10.20
2017,07,17,03,55,10.20
2017,07,17,03,56,10.20
2017,07,17,03,57,10.20
2017,07,17,03,58,10.10
2017,07,17,03,59,10.10
2017,07,17,04,00,10.10
2017,07,17,04,01,10.10
2017,07,17,04,02,10.10
2017,07,17,04,03,10.10
2017,07,17,04,04,10.20
2017,07,17,04,05,10.20
2017,07,17,04,06,10.20
2017,07,17,04,07,10.20
2017,07,17,04,08,10.20
2017,07,17,04,09,10.10
2017,07,17,04,10,10.10
2017,07,17,04,11,10.10
2017,07,17,04,12,10.10
2017,07,17,04,13,10.10
2017,07,17,04,14,10.10
2017,07,17,04,15,10.10
2017,07,17,04,16,10.10
2017,07,17,04,17,10.10
2017,07,17,04,18,10.10
2017,07,17,04,19,10.10
2017,07,17,04,20,10.10
2017,07,17,04,21,10.10
2017,07,17,04,22,10.10
2017,07,17,04,23,10.00
2017,07,17,04,24,10.00
2017,07,17,04,25,10.00
2017,07,17,04,26,10.00
2017,07,17,04,27,10.00
2017,07,17,04,28,9.90
2017,07,17,04,29,9.90
2017,07,17,04,30,9.90
2017,07,17,04,31,9.90
2017,07,17,04,32,9.90
2017,07,17,04,33,9.90
2017,07,17,04,34,9.90
2017,07,17,04,35,9.90
2017,07,17,04,36,9.90
2017,07,17,04,37,9.90
2017,07,17,04,38,9.90
2017,07,17,04,39,9.80
2017,07,17,04,40,9.80
2017,07,17,04,41,9.80
2017,07,17,04,42,9.80
2017,07,17,04,43,9.70
2017,07,17,04,44,9.70
2017,07,17,04,45,9.70
2017,07,17,04,46,9.60
2017,07,17,04,47,9.60
2017,07,17,04,48,9.50
2017,07,17,04,49,9.50
2017,07,17,04,50,9.50
2017,07,17,04,51,9.40
2017,07,17,04,52,9.40
2017,07,17,04,53,9.40
2017,07,17,04,54,9.40
2017,07,17,04,55,9.40
2017,07,17,04,56,9.30
2017,07,17,04,57,9.30
2017,07,17,04,58,9.30
2017,07,17,04,59,9.30
2017,07,17,05,00,9.30
2017,07,17,05,01,9.30
2017,07,17,05,02,9.30
2017,07,17,05,03,9.20
2017,07,17,05,04,9.20
2017,07,17,05,05,9.20
2017,07,17,05,06,9.20
2017,07,17,05,07,9.20
2017,07,17,05,08,9.20
2017,07,17,05,09,9.20
2017,07,17,05,10,9.20
2017,07,17,05,11,9.20
2017,07,17,05,12,9.20
2017,07,17,05,13,9.20
2017,07,17,05,14,9.20
2017,07,17,05,15,9.20
2017,07,17,05,16,9.20
2017,07,17,05,17,9.20
2017,07,17,05,18,9.20
2017,07,17,05,19,9.20
2017,07,17,05,20,9.20
2017,07,17,05,21,9.20
2017,07,17,05,22,9.20
2017,07,17,05,23,9.20
2017,07,17,05,24,9.20
2017,07,17,05,25,9.20
2017,07,17,05,26,9.10
2017,07,17,05,27,9.10
2017,07,17,05,28,9.10
2017,07,17,05,29,9.10
2017,07,17,05,30,9.10
2017,07,17,05,31,9.00
2017,07,17,05,32,9.00
2017,07,17,05,33,9.00
2017,07,17,05,34,9.00
2017,07,17,05,35,9.00
2017,07,17,05,36,9.00
2017,07,17,05,37,8.90
2017,07,17,05,38,8.90
2017,07,17,05,39,8.90
2017,07,17,05,40,8.90
2017,07,17,05,41,8.90
2017,07,17,05,42,8.90
2017,07,17,05,43,8.90
2017,07,17,05,44,9.00
2017,07,17,05,45,9.00
2017,07,17,05,46,9.00
2017,07,17,05,47,9.00
2017,07,17,05,48,9.10
2017,07,17,05,49,9.10
2017,07,17,05,50,9.10
2017,07,17,05,51,9.10
2017,07,17,05,52,9.10
2017,07,17,05,53,9.10
2017,07,17,05,54,9.10
2017,07,17,05,55,9.10
2017,07,17,05,56,9.10
2017,07,17,05,57,9.10
2017,07,17,05,58,9.10
2017,07,17,05,59,9.10
2017,07,17,06,00,9.00
2017,07,17,06,01,9.00
2017,07,17,06,02,9.00
2017,07,17,06,03,9.00
2017,07,17,06,04,9.00
2017,07,17,06,05,9.00
2017,07,17,06,06,9.00
2017,07,17,06,07,9.10
2017,07,17,06,08,9.10
2017,07,17,06,09,9.10
2017,07,17,06,10,9.10
2017,07,17,06,11,9.10
2017,07,17,06,12,9.20
2017,07,17,06,13,9.20
2017,07,17,06,14,9.20
2017,07,17,06,15,9.20
2017,07,17,06,16,9.20
2017,07,17,06,17,9.20
2017,07,17,06,18,9.20
2017,07,17,06,19,9.20
2017,07,17,06,20,9.20
2017,07,17,06,21,9.20
2017,07,17,06,22,9.20
2017,07,17,06,23,9.20
2017,07,17,06,24,9.20
2017,07,17,06,25,9.20
2017,07,17,06,26,9.20
2017,07,17,06,27,9.20
2017,07,17,06,28,9.20
2017,07,17,06,29,9.20
2017,07,17,06,30,9.20
2017,07,17,06,31,9.20
2017,07,17,06,32,9.20
2017,07,17,06,33,9.20
2017,07,17,06,34,9.20
2017,07,17,06,35,9.20
2017,07,17,06,36,9.20
2017,07,17,06,37,9.20
2017,07,17,06,38,9.20
2017,07,17,06,39,9.30
2017,07,17,06,40,9.30
2017,07,17,06,41,9.30
2017,07,17,06,42,9.30
2017,07,17,06,43,9.30
2017,07,17,06,44,9.40
2017,07,17,06,45,9.40
2017,07,17,06,46,9.50
2017,07,17,06,47,9.60
2017,07,17,06,48,9.70
2017,07,17,06,49,9.70
2017,07,17,06,50,9.80
2017,07,17,06,51,9.80
2017,07,17,06,52,9.90
2017,07,17,06,53,10.00
2017,07,17,06,54,10.10
2017,07,17,06,55,10.30
2017,07,17,06,56,10.40
2017,07,17,06,57,10.50
2017,07,17,06,58,10.50
2017,07,17,06,59,10.60
2017,07,17,07,00,10.60
2017,07,17,07,01,10.70
2017,07,17,07,02,10.80
2017,07,17,07,03,11.00
2017,07,17,07,04,11.10
2017,07,17,07,05,11.30
2017,07,17,07,06,11.40
2017,07,17,07,07,11.60
2017,07,17,07,08,11.70
2017,07,17,07,09,11.80
2017,07,17,07,10,11.80
2017,07,17,07,11,11.80
2017,07,17,07,12,11.90
2017,07,17,07,13,12.00
2017,07,17,07,14,12.10
2017,07,17,07,15,12.30
2017,07,17,07,16,12.40
2017,07,17,07,17,12.50
2017,07,17,07,18,12.60
2017,07,17,07,19,12.70
2017,07,17,07,20,12.90
2017,07,17,07,21,13.00
2017,07,17,07,22,13.10
2017,07,17,07,23,13.30
2017,07,17,07,24,13.40
2017,07,17,07,25,13.50
2017,07,17,07,26,13.60
2017,07,17,07,27,13.80
2017,07,17,07,28,13.80
2017,07,17,07,29,13.90
2017,07,17,07,30,13.90
2017,07,17,07,31,14.00
2017,07,17,07,32,14.10
2017,07,17,07,33,14.10
2017,07,17,07,34,14.10
2017,07,17,07,35,14.20
2017,07,17,07,36,14.30
2017,07,17,07,37,14.30
2017,07,17,07,38,14.40
2017,07,17,07,39,14.40
2017,07,17,07,40,14.50
2017,07,17,07,41,14.60
2017,07,17,07,42,14.70
2017,07,17,07,43,14.80
2017,07,17,07,44,15.00
2017,07,17,07,45,15.10
2017,07,17,07,46,15.30
2017,07,17,07,47,15.50
2017,07,17,07,48,15.60
2017,07,17,07,49,15.70
2017,07,17,07,50,15.80
2017,07,17,07,51,15.80
2017,07,17,07,52,15.90
2017,07,17,07,53,16.00
2017,07,17,07,54,16.10
2017,07,17,07,55,16.20
2017,07,17,07,56,16.30
2017,07,17,07,57,16.30
2017,07,17,07,58,16.30
2017,07,17,07,59,16.40
2017,07,17,08,00,16.50
2017,07,17,08,01,16.50
2017,07,17,08,02,16.60
2017,07,17,08,03,16.60
2017,07,17,08,04,16.60
2017,07,17,08,05,16.60
2017,07,17,08,06,16.60
2017,07,17,08,07,16.50
2017,07,17,08,08,16.50
2017,07,17,08,09,16.50
2017,07,17,08,10,16.50
2017,07,17,08,11,16.50
2017,07,17,08,12,16.60
2017,07,17,08,13,16.60
2017,07,17,08,14,16.60
2017,07,17,08,15,16.60
2017,07,17,08,16,16.60
2017,07,17,08,17,16.60
2017,07,17,08,18,16.60
2017,07,17,08,19,16.60
2017,07,17,08,20,16.70
2017,07,17,08,21,16.70
2017,07,17,08,22,16.80
2017,07,17,08,23,16.90
2017,07,17,08,24,17.10
2017,07,17,08,25,17.20
2017,07,17,08,26,17.30
2017,07,17,08,27,17.50
2017,07,17,08,28,17.70
2017,07,17,08,29,17.80
2017,07,17,08,30,17.90
2017,07,17,08,31,18.00
2017,07,17,08,32,18.10
2017,07,17,08,33,18.20
2017,07,17,08,34,18.30
2017,07,17,08,35,18.40
2017,07,17,08,36,18.40
2017,07,17,08,37,18.50
2017,07,17,08,38,18.50
2017,07,17,08,39,18.60
2017,07,17,08,40,18.70
2017,07,17,08,41,18.70
2017,07,17,08,42,18.70
2017,07,17,08,43,18.60
2017,07,17,08,44,18.60
2017,07,17,08,45,18.70
2017,07,17,08,46,18.70
2017,07,17,08,47,18.80
2017,07,17,08,48,18.80
2017,07,17,08,49,18.90
2017,07,17,08,50,18.90
2017,07,17,08,51,19.00
2017,07,17,08,52,19.00
2017,07,17,08,53,18.90
2017,07,17,08,54,18.80
2017,07,17,08,55,18.80
2017,07,17,08,56,18.80
2017,07,17,08,57,18.70
2017,07,17,08,58,18.80
2017,07,17,08,59,18.80
2017,07,17,09,00,18.90
2017,07,17,09,01,19.00
2017,07,17,09,02,19.00
2017,07,17,09,03,19.10
2017,07,17,09,04,19.10
2017,07,17,09,05,19.10
2017,07,17,09,06,19.20
2017,07,17,09,07,19.20
2017,07,17,09,08,19.20
2017,07,17,09,09,19.20
2017,07,17,09,10,19.20
2017,07,17,09,11,19.20
2017,07,17,09,12,19.30
2017,07,17,09,13,19.30
2017,07,17,09,14,19.40
2017,07,17,09,15,19.30
2017,07,17,09,16,19.30
2017,07,17,09,17,19.30
2017,07,17,09,18,19.20
2017,07,17,09,19,19.20
2017,07,17,09,20,19.20
2017,07,17,09,21,19.30
2017,07,17,09,22,19.40
2017,07,17,09,23,19.40
2017,07,17,09,24,19.40
2017,07,17,09,25,19.40
2017,07,17,09,26,19.40
2017,07,17,09,27,19.50
2017,07,17,09,28,19.60
2017,07,17,09,29,19.70
2017,07,17,09,30,19.80
2017,07,17,09,31,19.80
2017,07,17,09,32,19.70
2017,07,17,09,33,19.70
2017,07,17,09,34,19.60
2017,07,17,09,35,19.60
2017,07,17,09,36,19.60
2017,07,17,09,37,19.60
2017,07,17,09,38,19.60
2017,07,17,09,39,19.60
2017,07,17,09,40,19.60
2017,07,17,09,41,19.70
2017,07,17,09,42,19.80
2017,07,17,09,43,19.80
2017,07,17,09,44,19.90
2017,07,17,09,45,19.90
2017,07,17,09,46,19.80
2017,07,17,09,47,19.80
2017,07,17,09,48,19.70
2017,07,17,09,49,19.80
2017,07,17,09,50,19.80
2017,07,17,09,51,19.80
2017,07,17,09,52,19.70
2017,07,17,09,53,19.70
2017,07,17,09,54,19.70
2017,07,17,09,55,19.80
2017,07,17,09,56,19.90
2017,07,17,09,57,20.00
2017,07,17,09,58,20.10
2017,07,17,09,59,20.10
2017,07,17,10,00,20.20
2017,07,17,10,01,20.20
2017,07,17,10,02,20.30
2017,07,17,10,03,20.30
2017,07,17,10,04,20.30
2017,07,17,10,05,20.20
2017,07,17,10,06,20.20
2017,07,17,10,07,20.20
2017,07,17,10,08,20.30
2017,07,17,10,09,20.30
2017,07,17,10,10,20.30
2017,07,17,10,11,20.40
2017,07,17,10,12,20.40
2017,07,17,10,13,20.40
2017,07,17,10,14,20.40
2017,07,17,10,15,20.30
2017,07,17,10,16,20.30
2017,07,17,10,17,20.40
2017,07,17,10,18,20.50
2017,07,17,10,19,20.60
2017,07,17,10,20,20.60
2017,07,17,10,21,20.70
2017,07,17,10,22,20.80
2017,07,17,10,23,20.80
2017,07,17,10,24,20.80
2017,07,17,10,25,20.80
2017,07,17,10,26,20.80
2017,07,17,10,27,20.80
2017,07,17,10,28,20.80
2017,07,17,10,29,20.80
2017,07,17,10,30,20.80
2017,07,17,10,31,20.70
2017,07,17,10,32,20.60
2017,07,17,10,33,20.50
2017,07,17,10,34,20.60
2017,07,17,10,35,20.60
2017,07,17,10,36,20.50
2017,07,17,10,37,20.50
2017,07,17,10,38,20.50
2017,07,17,10,39,20.60
2017,07,17,10,40,20.50
2017,07,17,10,41,20.50
2017,07,17,10,42,20.40
2017,07,17,10,43,20.30
2017,07,17,10,44,20.30
2017,07,17,10,45,20.30
2017,07,17,10,46,20.40
2017,07,17,10,47,20.60
2017,07,17,10,48,20.70
2017,07,17,10,49,20.80
2017,07,17,10,50,20.80
2017,07,17,10,51,20.90
2017,07,17,10,52,20.90
2017,07,17,10,53,20.90
2017,07,17,10,54,20.90
2017,07,17,10,55,20.90
2017,07,17,10,56,21.00
2017,07,17,10,57,21.00
2017,07,17,10,58,21.00
2017,07,17,10,59,21.00
2017,07,17,11,00,20.90
2017,07,17,11,01,20.80
2017,07,17,11,02,20.80
2017,07,17,11,03,20.90
2017,07,17,11,04,21.10
2017,07,17,11,05,21.20
2017,07,17,11,06,21.30
2017,07,17,11,07,21.30
2017,07,17,11,08,21.50
2017,07,17,11,09,21.60
2017,07,17,11,10,21.80
2017,07,17,11,11,21.80
2017,07,17,11,12,21.80
2017,07,17,11,13,21.90
2017,07,17,11,14,21.90
2017,07,17,11,15,22.00
2017,07,17,11,16,22.00
2017,07,17,11,17,21.90
2017,07,17,11,18,21.80
2017,07,17,11,19,21.80
2017,07,17,11,20,21.80
2017,07,17,11,21,21.60
2017,07,17,11,22,21.30
2017,07,17,11,23,21.30
2017,07,17,11,24,21.30
2017,07,17,11,25,21.40
2017,07,17,11,26,21.40
2017,07,17,11,27,21.40
2017,07,17,11,28,21.40
2017,07,17,11,29,21.40
2017,07,17,11,30,21.40
2017,07,17,11,31,21.40
2017,07,17,11,32,21.30
2017,07,17,11,33,21.20
2017,07,17,11,34,21.10
2017,07,17,11,35,21.00
2017,07,17,11,36,21.00
2017,07,17,11,37,20.90
2017,07,17,11,38,20.80
2017,07,17,11,39,20.80
2017,07,17,11,40,20.90
2017,07,17,11,41,21.00
2017,07,17,11,42,20.90
2017,07,17,11,43,20.90
2017,07,17,11,44,20.90
2017,07,17,11,45,21.10
2017,07,17,11,46,21.30
2017,07,17,11,47,21.30
2017,07,17,11,48,21.30
2017,07,17,11,49,21.20
2017,07,17,11,50,21.00
2017,07,17,11,51,20.90
2017,07,17,11,52,20.80
2017,07,17,11,53,20.80
2017,07,17,11,54,20.70
2017,07,17,11,55,20.70
2017,07,17,11,56,20.60
2017,07,17,11,57,20.70
2017,07,17,11,58,20.80
2017,07,17,11,59,20.80
2017,07,17,12,00,20.80
2017,07,17,12,01,20.90
2017,07,17,12,02,21.00
2017,07,17,12,03,21.10
2017,07,17,12,04,21.20
2017,07,17,12,05,21.20
2017,07,17,12,06,21.10
2017,07,17,12,07,21.00
2017,07,17,12,08,20.90
2017,07,17,12,09,20.90
2017,07,17,12,10,20.90
2017,07,17,12,11,21.00
2017,07,17,12,12,21.10
2017,07,17,12,13,21.20
2017,07,17,12,14,21.30
2017,07,17,12,15,21.30
2017,07,17,12,16,21.40
2017,07,17,12,17,21.30
2017,07,17,12,18,21.30
2017,07,17,12,19,21.20
2017,07,17,12,20,21.20
2017,07,17,12,21,21.30
2017,07,17,12,22,21.40
2017,07,17,12,23,21.50
2017,07,17,12,24,21.60
2017,07,17,12,25,21.50
2017,07,17,12,26,21.40
2017,07,17,12,27,21.40
2017,07,17,12,28,21.30
2017,07,17,12,29,21.30
2017,07,17,12,30,21.30
2017,07,17,12,31,21.30
2017,07,17,12,32,21.40
2017,07,17,12,33,21.50
2017,07,17,12,34,21.60
2017,07,17,12,35,21.60
2017,07,17,12,36,21.50
2017,07,17,12,37,21.50
2017,07,17,12,38,21.60
2017,07,17,12,39,21.50
2017,07,17,12,40,21.40
2017,07,17,12,41,21.40
2017,07,17,12,42,21.50
2017,07,17,12,43,21.50
2017,07,17,12,44,21.60
2017,07,17,12,45,21.50
2017,07,17,12,46,21.40
2017,07,17,12,47,21.40
2017,07,17,12,48,21.50
2017,07,17,12,49,21.60
2017,07,17,12,50,21.60
2017,07,17,12,51,21.60
2017,07,17,12,52,21.60
2017,07,17,12,53,21.70
2017,07,17,12,54,21.70
2017,07,17,12,55,21.70
2017,07,17,12,56,21.70
2017,07,17,12,57,21.60
2017,07,17,12,58,21.70
2017,07,17,12,59,21.80
2017,07,17,13,00,21.80
2017,07,17,13,01,21.80
2017,07,17,13,02,21.80
2017,07,17,13,03,21.90
2017,07,17,13,04,22.00
2017,07,17,13,05,22.10
2017,07,17,13,06,22.20
2017,07,17,13,07,22.20
2017,07,17,13,08,22.30
2017,07,17,13,09,22.40
2017,07,17,13,10,22.50
2017,07,17,13,11,22.50
2017,07,17,13,12,22.50
2017,07,17,13,13,22.40
2017,07,17,13,14,22.40
2017,07,17,13,15,22.30
2017,07,17,13,16,22.30
2017,07,17,13,17,22.20
2017,07,17,13,18,22.20
2017,07,17,13,19,22.20
2017,07,17,13,20,22.20
2017,07,17,13,21,22.20
2017,07,17,13,22,22.10
2017,07,17,13,23,22.10
2017,07,17,13,24,22.10
2017,07,17,13,25,22.20
2017,07,17,13,26,22.20
2017,07,17,13,27,22.30
2017,07,17,13,28,22.30
2017,07,17,13,29,22.30
2017,07,17,13,30,22.40
2017,07,17,13,31,22.50
2017,07,17,13,32,22.50
2017,07,17,13,33,22.60
2017,07,17,13,34,22.60
2017,07,17,13,35,22.60
2017,07,17,13,36,22.60
2017,07,17,13,37,22.70
2017,07,17,13,38,22.70
2017,07,17,13,39,22.80
2017,07,17,13,40,22.70
2017,07,17,13,41,22.70
2017,07,17,13,42,22.70
2017,07,17,13,43,22.70
2017,07,17,13,44,22.70
2017,07,17,13,45,22.60
2017,07,17,13,46,22.60
2017,07,17,13,47,22.50
2017,07,17,13,48,22.60
2017,07,17,13,49,22.60
2017,07,17,13,50,22.50
2017,07,17,13,51,22.50
2017,07,17,13,52,22.40
2017,07,17,13,53,22.40
2017,07,17,13,54,22.30
2017,07,17,13,55,22.20
2017,07,17,13,56,22.10
2017,07,17,13,57,22.10
2017,07,17,13,58,22.10
2017,07,17,13,59,22.20
2017,07,17,14,00,22.20
2017,07,17,14,01,22.30
2017,07,17,14,02,22.30
2017,07,17,14,03,22.30
2017,07,17,14,04,22.40
2017,07,17,14,05,22.40
2017,07,17,14,06,22.50
2017,07,17,14,07,22.60
2017,07,17,14,08,22.60
2017,07,17,14,09,22.80
2017,07,17,14,10,22.80
2017,07,17,14,11,22.80
2017,07,17,14,12,22.80
2017,07,17,14,13,22.70
2017,07,17,14,14,22.70
2017,07,17,14,15,22.60
2017,07,17,14,16,22.60
2017,07,17,14,17,22.60
2017,07,17,14,18,22.70
2017,07,17,14,19,22.60
2017,07,17,14,20,22.60
2017,07,17,14,21,22.60
2017,07,17,14,22,22.70
2017,07,17,14,23,22.70
2017,07,17,14,24,22.80
2017,07,17,14,25,22.80
2017,07,17,14,26,22.80
2017,07,17,14,27,22.70
2017,07,17,14,28,22.70
2017,07,17,14,29,22.80
2017,07,17,14,30,22.80
2017,07,17,14,31,23.00
2017,07,17,14,32,23.20
2017,07,17,14,33,23.30
2017,07,17,14,34,23.50
2017,07,17,14,35,23.60
2017,07,17,14,36,23.70
2017,07,17,14,37,23.80
2017,07,17,14,38,23.90
2017,07,17,14,39,23.90
2017,07,17,14,40,24.00
2017,07,17,14,41,24.00
2017,07,17,14,42,23.90
2017,07,17,14,43,23.80
2017,07,17,14,44,23.70
2017,07,17,14,45,23.50
2017,07,17,14,46,23.40
2017,07,17,14,47,23.40
2017,07,17,14,48,23.40
2017,07,17,14,49,23.50
2017,07,17,14,50,23.50
2017,07,17,14,51,23.60
2017,07,17,14,52,23.50
2017,07,17,14,53,23.50
2017,07,17,14,54,23.40
2017,07,17,14,55,23.30
2017,07,17,14,56,23.30
2017,07,17,14,57,23.40
2017,07,17,14,58,23.40
2017,07,17,14,59,23.60
2017,07,17,15,00,23.70
2017,07,17,15,01,23.80
2017,07,17,15,02,23.80
2017,07,17,15,03,23.80
2017,07,17,15,04,23.80
2017,07,17,15,05,23.80
2017,07,17,15,06,23.80
2017,07,17,15,07,23.80
2017,07,17,15,08,23.80
2017,07,17,15,09,23.80
2017,07,17,15,10,23.80
2017,07,17,15,11,23.70
2017,07,17,15,12,23.70
2017,07,17,15,13,23.60
2017,07,17,15,14,23.70
2017,07,17,15,15,23.70
2017,07,17,15,16,23.70
2017,07,17,15,17,23.70
2017,07,17,15,18,23.80
2017,07,17,15,19,23.70
2017,07,17,15,20,23.80
2017,07,17,15,21,23.80
2017,07,17,15,22,23.90
2017,07,17,15,23,24.10
2017,07,17,15,24,24.20
2017,07,17,15,25,24.10
2017,07,17,15,26,24.00
2017,07,17,15,27,23.90
2017,07,17,15,28,23.90
2017,07,17,15,29,23.80
2017,07,17,15,30,23.90
2017,07,17,15,31,23.90
2017,07,17,15,32,23.80
2017,07,17,15,33,23.70
2017,07,17,15,34,23.70
2017,07,17,15,35,23.70
2017,07,17,15,36,23.80
2017,07,17,15,37,23.90
2017,07,17,15,38,24.00
2017,07,17,15,39,23.90
2017,07,17,15,40,23.80
2017,07,17,15,41,23.90
2017,07,17,15,42,23.90
2017,07,17,15,43,24.00
2017,07,17,15,44,24.10
2017,07,17,15,45,24.20
2017,07,17,15,46,24.30
2017,07,17,15,47,24.30
2017,07,17,15,48,24.30
2017,07,17,15,49,24.30
2017,07,17,15,50,24.30
2017,07,17,15,51,24.20
2017,07,17,15,52,24.10
2017,07,17,15,53,24.00
2017,07,17,15,54,23.90
2017,07,17,15,55,23.90
2017,07,17,15,56,23.90
2017,07,17,15,57,24.00
2017,07,17,15,58,24.10
2017,07,17,15,59,24.20
2017,07,17,16,00,24.20
2017,07,17,16,01,24.00
2017,07,17,16,02,23.90
2017,07,17,16,03,24.00
2017,07,17,16,04,24.00
2017,07,17,16,05,24.00
2017,07,17,16,06,24.10
2017,07,17,16,07,24.20
2017,07,17,16,08,24.10
2017,07,17,16,09,24.00
2017,07,17,16,10,24.10
2017,07,17,16,11,24.10
2017,07,17,16,12,24.10
2017,07,17,16,13,24.10
2017,07,17,16,14,24.10
2017,07,17,16,15,24.00
2017,07,17,16,16,23.90
2017,07,17,16,17,23.80
2017,07,17,16,18,23.70
2017,07,17,16,19,23.50
2017,07,17,16,20,23.40
2017,07,17,16,21,23.30
2017,07,17,16,22,23.20
2017,07,17,16,23,23.20
2017,07,17,16,24,23.10
2017,07,17,16,25,23.20
2017,07,17,16,26,23.10
2017,07,17,16,27,23.00
2017,07,17,16,28,22.90
2017,07,17,16,29,22.90
2017,07,17,16,30,23.00
2017,07,17,16,31,23.00
2017,07,17,16,32,23.00
2017,07,17,16,33,23.10
2017,07,17,16,34,23.10
2017,07,17,16,35,23.00
2017,07,17,16,36,22.90
2017,07,17,16,37,22.90
2017,07,17,16,38,22.90
2017,07,17,16,39,22.90
2017,07,17,16,40,22.90
2017,07,17,16,41,23.00
2017,07,17,16,42,23.10
2017,07,17,16,43,23.20
2017,07,17,16,44,23.30
2017,07,17,16,45,23.30
2017,07,17,16,46,23.40
2017,07,17,16,47,23.30
2017,07,17,16,48,23.30
2017,07,17,16,49,23.40
2017,07,17,16,50,23.50
2017,07,17,16,51,23.40
2017,07,17,16,52,23.40
2017,07,17,16,53,23.60
2017,07,17,16,54,23.70
2017,07,17,16,55,23.80
2017,07,17,16,56,23.80
2017,07,17,16,57,23.80
2017,07,17,16,58,23.70
2017,07,17,16,59,23.70
2017,07,17,17,00,23.60
2017,07,17,17,01,23.60
2017,07,17,17,02,23.60
2017,07,17,17,03,23.50
2017,07,17,17,04,23.40
2017,07,17,17,05,23.30
2017,07,17,17,06,23.30
2017,07,17,17,07,23.30
2017,07,17,17,08,23.30
2017,07,17,17,09,23.20
2017,07,17,17,10,23.20
2017,07,17,17,11,23.20
2017,07,17,17,12,23.20
2017,07,17,17,13,23.10
2017,07,17,17,14,23.10
2017,07,17,17,15,23.10
2017,07,17,17,16,23.00
2017,07,17,17,17,23.00
2017,07,17,17,18,22.90
2017,07,17,17,19,22.80
2017,07,17,17,20,22.80
2017,07,17,17,21,22.70
2017,07,17,17,22,22.70
2017,07,17,17,23,22.70
2017,07,17,17,24,22.60
2017,07,17,17,25,22.70